This is the latest recevied weather packets stored in our database for station/object SV9FBP. If no packets are shown the sender has not sent any weather packets the latest 1 day(s).
| Time | Temp. | Humidity | Pressure | Rain* | Wind** | Luminosity | Snow |
|---|---|---|---|---|---|---|---|
| 1777946682 | 14.44° C | 61% | 1014.6 hPa | 0 mm | 2.24 m/s, 315° | - | - |
| 1777945780 | 14.44° C | 61% | 1014.7 hPa | 0 mm | 2.68 m/s, 0° | - | - |
| 1777944878 | 14.44° C | 61% | 1014.8 hPa | 0 mm | 2.24 m/s, 0° | - | - |
| 1777943976 | 14.44° C | 61% | 1014.7 hPa | 0 mm | 1.79 m/s, 0° | - | - |
| 1777943073 | 14.44° C | 61% | 1014.7 hPa | 0 mm | 1.79 m/s, 315° | - | - |
| 1777942171 | 14.44° C | 61% | 1015 hPa | 0 mm | 1.79 m/s, 0° | - | - |
| 1777941269 | 14.44° C | 60% | 1015.1 hPa | 0 mm | 1.79 m/s, 0° | - | - |
| 1777940367 | 14.44° C | 58% | 1015.2 hPa | 0 mm | 2.24 m/s, 0° | - | - |
| 1777939465 | 14.44° C | 59% | 1015.2 hPa | 0 mm | 3.58 m/s, 0° | - | - |
| 1777938562 | 13.89° C | 59% | 1015.5 hPa | 0 mm | 3.13 m/s, 0° | - | - |
| 1777937660 | 13.89° C | 59% | 1015.8 hPa | 0 mm | 2.24 m/s, 0° | - | - |
| 1777936758 | 13.33° C | 60% | 1015.8 hPa | 0 mm | 2.24 m/s, 0° | - | - |
| 1777935856 | 13.33° C | 61% | 1016.1 hPa | 0 mm | 2.24 m/s, 0° | - | - |
| 1777934956 | 13.33° C | 60% | 1016.3 hPa | 0 mm | 1.34 m/s, 0° | - | - |
| 1777934054 | 13.89° C | 59% | 1016.5 hPa | 0 mm | 0.89 m/s, 270° | - | - |
| 1777933149 | 14.44° C | 57% | 1016.6 hPa | 0 mm | 1.34 m/s, 0° | - | - |
| 1777932247 | 14.44° C | 55% | 1016.6 hPa | 0 mm | 1.79 m/s, 0° | - | - |
| 1777931345 | 14.44° C | 55% | 1016.6 hPa | 0 mm | 1.79 m/s, 0° | - | - |
| 1777930442 | 14.44° C | 55% | 1016.6 hPa | 0 mm | 1.79 m/s, 338° | - | - |
| 1777929541 | 14.44° C | 55% | 1016.7 hPa | 0 mm | 2.24 m/s, 315° | - | - |
| 1777928639 | 14.44° C | 54% | 1016.7 hPa | 0 mm | 2.24 m/s, 315° | - | - |
| 1777927736 | 14.44° C | 54% | 1016.8 hPa | 0 mm | 2.24 m/s, 338° | - | - |
* Rain latest hour (hover to see other rain measurements)
** Current wind speed in m/s (hover to see current wind gust speed)